[[{"header":{"parameterUnit":"m.s-1","parameterCategory":1,"la1":30.2992,"la2":30.254,"lo1":-89.0895,"lo2":-89.0443,"dy":0.0025,"dx":0.0025,"nx":19,"ny":19,"refTime":"2026-04-21T03:00:00:Z","depth":0,"parameterNumber":2,"parameterNumberName":"U-component_of_WINDS"},"data":[0,0,0,-2.552,-2.5523,-2.5677,-2.5677,-2.5859,-2.5861,0,0,0,0,0,0,0,0,0,0,0,-2.5464,-2.5465,-2.552,-2.5523,-2.5677,-2.5678,-2.5859,-2.5861,0,0,0,0,0,0,0,0,0,0,0,-2.5464,-2.5465,-2.5466,-2.5524,-2.5677,-2.5678,-2.5859,-2.5748,0,0,0,0,0,0,0,0,0,0,-2.5602,-2.554,-2.5464,-2.5466,-2.5525,-2.5676,-2.5678,-2.5743,-2.5755,-2.5783,0,-2.5804,0,-2.5835,-2.5872,-2.5872,0,0,0,-2.5531,-2.553,-2.558,-2.5466,-2.5526,-2.5676,-2.561,-2.575,-2.5763,-2.5798,-2.5806,-2.5814,-2.5838,-2.5873,-2.5874,-2.6005,-2.6005,0,0,-2.5523,-2.5486,-2.5571,-2.5588,-2.5562,-2.5605,-2.5614,-2.5758,-2.5765,-2.5807,-2.5818,-2.5841,-2.5874,-2.5875,-2.6005,-2.6005,0,0,0,-2.5493,-2.548,-2.5528,-2.5581,-2.5609,-2.5609,-2.562,-2.5759,-2.5777,-2.582,-2.5843,-2.5875,-2.5877,-2.6005,-2.6005,-2.5981,0,0,0,-2.5488,-2.5463,-2.5524,-2.5503,-2.5606,-2.5686,-2.5617,-2.5767,-2.5785,-2.5842,-2.5875,-2.5879,-2.6005,-2.6005,-2.5982,-2.5976,0,0,0,-2.5458,-2.5459,-2.5478,-2.5501,-2.5565,-2.5684,-2.5711,-2.5772,-2.5798,-2.5872,-2.5879,-2.6004,-2.6005,-2.5982,-2.5976,-2.6,0,0,0,-2.5415,-2.5455,-2.5477,-2.5531,-2.5564,-2.5668,-2.5711,-2.579,-2.5851,-2.5876,-2.6005,-2.6005,-2.5982,-2.5977,-2.6,-2.6013,-2.6015,0,0,-2.5445,-2.5457,-2.5492,-2.5516,-2.5607,-2.5647,-2.5736,-2.5826,-2.5867,-2.5957,-2.5961,-2.5981,-2.5976,-2.6,-2.6041,-2.6042,0,0,0,-2.5489,-2.5514,-2.5546,-2.5602,-2.5672,-2.5732,-2.5812,-2.5847,-2.5925,-2.5906,-2.5998,-2.5996,-2.6011,-2.602,-2.6021,-2.6037,-2.6007,-2.6007,-2.6007,-2.548,-2.553,-2.5591,-2.5659,-2.5713,-2.5797,-2.5846,-2.5906,-2.5941,-2.5962,-2.5988,-2.6007,-2.6015,-2.6016,-2.6032,-2.6,-2.6,-2.6,-2.6,-2.5529,-2.5572,-2.5617,-2.5692,-2.5745,-2.581,-2.5893,-2.5915,-2.5984,-2.599,-2.6006,-2.6008,-2.6016,-2.6032,-2.5998,-2.5999,-2.5999,-2.5999,-2.5999,-2.5528,-2.5557,-2.5597,-2.5684,-2.5746,-2.5815,-2.5879,-2.5925,-2.5969,-2.5985,-2.6019,-2.602,-2.6026,-2.5998,-2.5998,-2.5998,-2.5999,-2.5999,-2.5999,-2.5511,-2.5557,-2.5605,-2.5683,-2.5725,-2.5788,-2.5873,-2.5917,-2.5977,-2.6006,-2.6007,-2.604,-2.6007,-2.5997,-2.6,-2.6,-2.5999,-2.5999,-2.5999,-2.5542,-2.5542,-2.5615,-2.5658,-2.5754,-2.5813,-2.5872,-2.5957,-2.6,-2.6031,-2.6061,-2.6029,-2.6045,-2.6044,-2.6037,-2.6049,-2.6049,-2.6049,-2.6049,-2.5541,-2.5553,-2.5639,-2.5704,-2.5773,-2.5834,-2.5917,-2.5984,-2.6054,-2.6085,-2.609,-2.6084,-2.6082,-2.6099,-2.6097,-2.6091,-2.6117,-2.6118,-2.6118,-2.5563,-2.5584,-2.5644,-2.5712,-2.5791,-2.5858,-2.5938,-2.6012,-2.6092,-2.6121,-2.611,-2.6107,-2.6098,-2.6093,-2.612,-2.6116,-2.6106,0,0]},{"header":{"parameterUnit":"m.s-1","parameterCategory":1,"la1":30.2992,"la2":30.254,"lo1":-89.0895,"lo2":-89.0443,"dy":0.0025,"dx":0.0025,"nx":19,"ny":19,"refTime":"2026-04-21T03:00:00:Z","depth":0,"parameterNumber":3,"parameterNumberName":"V-component_of_WINDS"},"data":[0,0,0,5.27,5.2701,5.2739,5.2739,5.2786,5.2786,0,0,0,0,0,0,0,0,0,0,0,5.2689,5.2689,5.27,5.2701,5.2739,5.2739,5.2786,5.2786,0,0,0,0,0,0,0,0,0,0,0,5.2689,5.2689,5.2689,5.2701,5.2739,5.2739,5.2785,5.2757,0,0,0,0,0,0,0,0,0,0,5.272,5.271,5.2689,5.269,5.2701,5.2739,5.2739,5.2756,5.2759,5.2768,0,5.2777,0,5.2782,5.2789,5.2789,0,0,0,5.2701,5.2708,5.2718,5.269,5.2702,5.2739,5.2722,5.2758,5.2761,5.2772,5.2778,5.2779,5.2783,5.2789,5.279,5.2846,5.2846,0,0,5.2698,5.2695,5.2716,5.2721,5.2716,5.2721,5.2723,5.276,5.2765,5.2778,5.2781,5.2784,5.279,5.279,5.2846,5.2846,0,0,0,5.2693,5.2694,5.2703,5.2719,5.2726,5.2722,5.2724,5.2763,5.2767,5.2781,5.2785,5.279,5.2791,5.2846,5.2846,5.2857,0,0,0,5.2691,5.269,5.2703,5.2701,5.2725,5.2745,5.2727,5.2764,5.2769,5.2784,5.279,5.2791,5.2845,5.2846,5.2856,5.2862,0,0,0,5.2686,5.269,5.2696,5.2701,5.2717,5.2745,5.2751,5.2765,5.2771,5.2789,5.2791,5.2845,5.2846,5.2855,5.286,5.2875,0,0,0,5.2679,5.2704,5.2696,5.2725,5.2717,5.2752,5.275,5.2777,5.2794,5.279,5.2845,5.2846,5.2855,5.286,5.2874,5.2886,5.2891,0,0,5.2708,5.2707,5.2725,5.2718,5.2755,5.2747,5.2784,5.2802,5.2806,5.2832,5.2834,5.2856,5.286,5.2875,5.2924,5.2928,0,0,0,5.2732,5.2745,5.2755,5.2772,5.2788,5.2801,5.2815,5.2822,5.2844,5.282,5.2866,5.2869,5.2878,5.2883,5.2887,5.2894,5.2849,5.2849,5.2849,5.2767,5.2773,5.2802,5.2812,5.2829,5.2843,5.2856,5.2867,5.2867,5.2878,5.2885,5.2914,5.2921,5.2923,5.2931,5.2893,5.2893,5.2893,5.2893,5.2809,5.2827,5.2828,5.2856,5.2861,5.2884,5.2899,5.2898,5.2919,5.2909,5.2917,5.2904,5.2928,5.2934,5.2894,5.2894,5.2894,5.2894,5.2894,5.2831,5.2841,5.285,5.2876,5.2895,5.2905,5.2926,5.293,5.2933,5.2942,5.2949,5.2949,5.2948,5.2945,5.2945,5.2945,5.2946,5.2946,5.2946,5.2849,5.286,5.2878,5.2898,5.291,5.2926,5.2941,5.2953,5.2966,5.2967,5.2967,5.2965,5.293,5.292,5.2947,5.2947,5.2947,5.2947,5.2946,5.2887,5.288,5.2908,5.292,5.2944,5.2962,5.2968,5.2991,5.3001,5.3011,5.3008,5.2982,5.298,5.2978,5.2969,5.3007,5.3007,5.3007,5.3007,5.2905,5.2906,5.2935,5.2954,5.2974,5.2982,5.3012,5.3024,5.3035,5.3042,5.3037,5.3027,5.3025,5.3024,5.3021,5.3013,5.3061,5.3061,5.3061,5.2928,5.2931,5.2956,5.2969,5.2988,5.3004,5.3032,5.3053,5.3064,5.3064,5.3046,5.3044,5.3028,5.3023,5.302,5.3015,5.3001,0,0]}]]